[[{"header":{"parameterUnit":"m.s-1","parameterCategory":1,"la1":30.2991,"la2":30.254,"lo1":-89.0895,"lo2":-89.0444,"dy":0.0017,"dx":0.0017,"nx":28,"ny":28,"refTime":"2025-07-15T09:00:00:Z","depth":0,"parameterNumber":2,"parameterNumberName":"U-component_of_WINDS"},"data":[0,0,0,0,0,0,0,0,0,0,0,0,0,0,0,0,0,0,0,0,0,0,0,0,0,0,0,0,0,0,0,0,0,0,0,0,0,0,0,0,0,0,0,0,0,0,0,0,0,0,0,0,0,0,0,0,0,0,1.2817,1.2817,0,1.2864,1.2864,1.2865,1.2876,1.2875,1.2875,1.2875,1.2923,1.2925,1.2926,0,0,0,0,0,0,0,0,0,0,0,0,0,1.2736,1.2738,1.2816,1.2817,1.2818,1.2864,1.2864,1.2865,1.2876,1.2875,1.2875,1.2875,1.2923,1.2925,1.2927,0,0,0,0,0,0,0,0,0,0,0,0,0,1.2776,1.2738,1.2816,1.2829,1.283,1.2864,1.2864,1.2865,1.2876,1.2875,1.2875,1.2874,1.2922,1.2924,1.2927,1.2952,0,0,1.2934,1.2935,0,0,0,0,0,0,0,0,1.2774,1.2779,1.2826,1.2828,1.283,1.2863,1.2854,1.2894,1.2876,1.2858,1.2875,1.2874,1.2904,1.2908,1.2918,1.2954,1.2956,1.2934,1.2936,1.2937,1.2937,0,0,0,0,0,0,0,1.2771,1.2777,1.2835,1.2827,1.2829,1.2832,1.2837,1.2862,1.2883,1.286,1.2861,1.2866,1.2905,1.2915,1.2919,1.2957,1.2934,1.2936,1.2938,1.2939,1.3017,1.3018,0,0,0,0,0,0,1.2766,1.2775,1.2834,1.2837,1.28,1.2834,1.284,1.2853,1.2883,1.2887,1.2867,1.2867,1.2911,1.2916,1.2921,1.2953,1.2937,1.2939,1.294,1.3017,1.3018,1.3018,0,0,0,0,0,0,1.2764,1.2771,1.2832,1.2806,1.2814,1.2836,1.2851,1.2854,1.2865,1.2888,1.2892,1.2874,1.2911,1.2917,1.2944,1.2954,1.294,1.2942,1.3016,1.3017,1.3018,1.3016,0,0,0,0,0,0,1.2762,1.2771,1.278,1.2806,1.2815,1.2854,1.2851,1.2856,1.2869,1.2869,1.2896,1.29,1.2911,1.2941,1.2947,1.2957,1.2944,1.3015,1.3017,1.3018,1.3015,1.3017,1.3018,0,0,0,0,0,1.2759,1.2777,1.278,1.2787,1.2827,1.2855,1.286,1.2873,1.287,1.288,1.2895,1.2899,1.2952,1.2943,1.295,1.2962,1.3015,1.3016,1.3018,1.3015,1.3017,1.3018,0,0,0,0,0,0,1.2751,1.2781,1.2784,1.2812,1.2831,1.2857,1.2869,1.2874,1.2895,1.2894,1.291,1.2916,1.2942,1.2955,1.2944,1.2988,1.2983,1.2986,1.2979,1.2981,1.2982,1.2979,1.2946,0,0,0,0,0,1.2753,1.2772,1.2797,1.2819,1.2828,1.2847,1.2859,1.2868,1.2888,1.2896,1.2914,1.2933,1.2955,1.2969,1.299,1.3017,1.3024,1.3029,1.3031,1.3032,1.3034,1.3051,1.3054,1.3023,1.3023,1.3023,0,0,1.2755,1.2774,1.2786,1.2818,1.2833,1.2854,1.2854,1.2875,1.2891,1.29,1.2927,1.294,1.2963,1.2991,1.3004,1.3002,1.3044,1.3033,1.3034,1.3036,1.3053,1.3056,1.3058,1.3024,1.3024,1.3024,0,0,1.2772,1.2787,1.2808,1.2824,1.2848,1.2861,1.2866,1.2891,1.29,1.2928,1.2935,1.2954,1.2991,1.3007,1.3021,1.3045,1.305,1.3051,1.3059,1.3075,1.3078,1.308,1.309,1.3093,1.3054,1.3054,1.3054,0,1.2772,1.2803,1.2817,1.2839,1.2853,1.2863,1.2884,1.2899,1.2929,1.2938,1.2936,1.2983,1.2999,1.3032,1.3038,1.3048,1.3055,1.3048,1.3076,1.3079,1.3081,1.309,1.3094,1.3054,1.3054,1.3054,1.3054,0,1.2804,1.2825,1.2839,1.2868,1.2883,1.2904,1.2922,1.2937,1.2944,1.2957,1.2986,1.3006,1.3032,1.304,1.3047,1.3074,1.3073,1.3073,1.3069,1.3084,1.3093,1.3097,1.3054,1.3054,1.3054,1.3054,0,0,1.2815,1.2853,1.2857,1.2871,1.2899,1.2916,1.2938,1.2964,1.2977,1.2997,1.3017,1.3048,1.3049,1.3064,1.3074,1.3088,1.3107,1.3087,1.3088,1.3091,1.314,1.314,1.3143,1.3111,1.3112,1.3112,1.3138,0,1.2835,1.2875,1.2889,1.2922,1.2942,1.2953,1.2972,1.2992,1.3005,1.3025,1.304,1.3062,1.3061,1.3071,1.3086,1.3102,1.3118,1.31,1.313,1.3131,1.3124,1.3148,1.3148,1.3171,1.3142,1.3142,1.3143,0,1.2864,1.2885,1.292,1.2947,1.2956,1.2973,1.2999,1.3017,1.304,1.3049,1.3067,1.3076,1.31,1.3094,1.3129,1.3117,1.313,1.314,1.3141,1.3145,1.3138,1.3153,1.3179,1.3182,1.3148,1.3148,1.3147,0,1.287,1.2907,1.2934,1.2945,1.2977,1.2989,1.3003,1.3025,1.304,1.3062,1.3072,1.3097,1.3111,1.313,1.3146,1.314,1.318,1.3175,1.3188,1.3188,1.3196,1.3196,1.3225,1.3204,1.3204,1.3204,1.3204,0,1.2891,1.2912,1.2937,1.2953,1.2978,1.2994,1.3018,1.3032,1.3053,1.3072,1.3083,1.3101,1.3121,1.3142,1.3154,1.3182,1.3188,1.3196,1.3199,1.3196,1.3195,1.3205,1.3204,1.3205,1.3204,1.3204,1.3204,0,1.2902,1.2919,1.2948,1.2976,1.2984,1.3001,1.3025,1.3042,1.3056,1.3081,1.3088,1.311,1.3136,1.3154,1.3186,1.3195,1.3225,1.3228,1.3217,1.3219,1.3232,1.3231,1.3269,1.3276,1.3249,1.325,1.325,0,1.2914,1.2931,1.2961,1.2975,1.2989,1.3011,1.3027,1.3044,1.306,1.3088,1.3102,1.3128,1.315,1.3191,1.3211,1.3236,1.324,1.3252,1.3244,1.324,1.3241,1.324,1.3243,1.3253,1.3253,1.3253,1.3253,0,1.2935,1.2943,1.2965,1.2991,1.3009,1.303,1.3051,1.3062,1.3082,1.31,1.3126,1.3144,1.3178,1.3204,1.3232,1.3247,1.3254,1.3256,1.3261,1.3257,1.3251,1.3255,1.3221,1.3255,1.3255,1.3255,1.3255,1.3255,1.2948,1.2964,1.2988,1.3012,1.303,1.3049,1.3067,1.3084,1.3106,1.3135,1.3144,1.3172,1.3196,1.3234,1.325,1.3272,1.3271,1.3278,1.328,1.3281,1.3282,1.3247,1.3277,1.3277,1.3277,1.3277,1.3277,0,1.297,1.2986,1.3009,1.3038,1.3057,1.3062,1.3086,1.3102,1.3127,1.3149,1.3171,1.3202,1.3228,1.325,1.3278,1.3292,1.3296,1.3298,1.3298,1.3302,1.328,1.3274,1.3295,1.3295,1.3295,1.3295,1.3295,1.3295,1.2984,1.3011,1.3023,1.3059,1.3076,1.3103,1.3116,1.3135,1.3153,1.3187,1.3209,1.3223,1.3246,1.3275,1.33,1.3306,1.3316,1.3318,1.3325,1.3305,1.3303,1.3301,1.3295,1.332,1.332,1.3344,1.3344,1.3345]},{"header":{"parameterUnit":"m.s-1","parameterCategory":1,"la1":30.2991,"la2":30.254,"lo1":-89.0895,"lo2":-89.0444,"dy":0.0017,"dx":0.0017,"nx":28,"ny":28,"refTime":"2025-07-15T09:00:00:Z","depth":0,"parameterNumber":3,"parameterNumberName":"V-component_of_WINDS"},"data":[0,0,0,0,0,0,0,0,0,0,0,0,0,0,0,0,0,0,0,0,0,0,0,0,0,0,0,0,0,0,0,0,0,0,0,0,0,0,0,0,0,0,0,0,0,0,0,0,0,0,0,0,0,0,0,0,0,0,-2.1867,-2.1868,0,-2.199,-2.1992,-2.1993,-2.2015,-2.2014,-2.2013,-2.2012,-2.2139,-2.2143,-2.2147,0,0,0,0,0,0,0,0,0,0,0,0,0,-2.1649,-2.1653,-2.1866,-2.1868,-2.187,-2.199,-2.1992,-2.1994,-2.2015,-2.2014,-2.2013,-2.2012,-2.2137,-2.2143,-2.2148,0,0,0,0,0,0,0,0,0,0,0,0,0,-2.1755,-2.1654,-2.1866,-2.1895,-2.1899,-2.199,-2.1992,-2.1994,-2.2016,-2.2014,-2.2012,-2.2011,-2.2136,-2.2142,-2.2148,-2.222,0,0,-2.2168,-2.2171,0,0,0,0,0,0,0,0,-2.1749,-2.1763,-2.1889,-2.1893,-2.1898,-2.1986,-2.1962,-2.207,-2.2016,-2.1971,-2.2012,-2.201,-2.2089,-2.2099,-2.2126,-2.2226,-2.2231,-2.2169,-2.2173,-2.2176,-2.2177,0,0,0,0,0,0,0,-2.1742,-2.1758,-2.1915,-2.1891,-2.1896,-2.1902,-2.1915,-2.1982,-2.2037,-2.1975,-2.1977,-2.1991,-2.2091,-2.212,-2.2129,-2.2233,-2.2169,-2.2175,-2.2179,-2.2181,-2.2397,-2.2399,0,0,0,0,0,0,-2.1729,-2.1752,-2.1912,-2.1919,-2.1818,-2.1907,-2.1922,-2.1959,-2.2037,-2.2047,-2.1992,-2.1992,-2.2109,-2.2122,-2.2134,-2.2222,-2.2176,-2.2182,-2.2185,-2.2395,-2.2397,-2.2399,0,0,0,0,0,0,-2.1724,-2.1743,-2.1907,-2.1836,-2.1857,-2.1912,-2.1954,-2.1962,-2.1991,-2.205,-2.206,-2.2011,-2.2109,-2.2125,-2.2198,-2.2227,-2.2185,-2.2191,-2.2393,-2.2396,-2.2398,-2.2399,0,0,0,0,0,0,-2.1718,-2.1741,-2.1769,-2.1836,-2.1861,-2.1969,-2.1956,-2.1966,-2.2002,-2.2002,-2.207,-2.208,-2.2109,-2.2188,-2.2205,-2.2235,-2.2196,-2.2391,-2.2394,-2.2398,-2.2396,-2.2401,-2.2405,0,0,0,0,0,-2.171,-2.1764,-2.177,-2.1789,-2.1896,-2.197,-2.1984,-2.2016,-2.2004,-2.2032,-2.207,-2.2078,-2.2221,-2.2196,-2.2214,-2.2247,-2.2389,-2.2393,-2.2397,-2.2394,-2.24,-2.2405,0,0,0,0,0,0,-2.1698,-2.1773,-2.1781,-2.1858,-2.1908,-2.1974,-2.201,-2.2021,-2.2075,-2.2073,-2.211,-2.2125,-2.2197,-2.2229,-2.22,-2.232,-2.2304,-2.2312,-2.2296,-2.2302,-2.2306,-2.2296,-2.2201,0,0,0,0,0,-2.1705,-2.1758,-2.1821,-2.1883,-2.1908,-2.1955,-2.1988,-2.2008,-2.2061,-2.2082,-2.2126,-2.2176,-2.2233,-2.2269,-2.2325,-2.2402,-2.2417,-2.2433,-2.2438,-2.2441,-2.2447,-2.249,-2.2498,-2.2413,-2.2413,-2.2413,0,0,-2.1718,-2.1766,-2.1798,-2.1882,-2.1923,-2.1978,-2.1972,-2.203,-2.2071,-2.2091,-2.2163,-2.2197,-2.2256,-2.2331,-2.2367,-2.2361,-2.2474,-2.2446,-2.2448,-2.2453,-2.2495,-2.2503,-2.251,-2.2416,-2.2415,-2.2415,0,0,-2.1771,-2.1813,-2.1869,-2.191,-2.1972,-2.2003,-2.2016,-2.2081,-2.2104,-2.2177,-2.2193,-2.2242,-2.2339,-2.238,-2.2414,-2.2483,-2.2492,-2.25,-2.2523,-2.2564,-2.2571,-2.2577,-2.2601,-2.2609,-2.2506,-2.2506,-2.2506,0,-2.178,-2.1863,-2.1896,-2.1954,-2.1991,-2.2011,-2.2068,-2.2107,-2.2183,-2.2208,-2.22,-2.2322,-2.2363,-2.2448,-2.2465,-2.2492,-2.2509,-2.2492,-2.2567,-2.2574,-2.258,-2.2603,-2.2612,-2.2507,-2.2507,-2.2507,-2.2507,0,-2.1871,-2.1929,-2.1967,-2.204,-2.2081,-2.2138,-2.218,-2.2218,-2.2234,-2.2266,-2.234,-2.2391,-2.2456,-2.2478,-2.2496,-2.2567,-2.2561,-2.256,-2.2545,-2.2588,-2.261,-2.262,-2.2507,-2.2507,-2.2507,-2.2507,0,0,-2.1919,-2.201,-2.2024,-2.2057,-2.2127,-2.2172,-2.223,-2.2294,-2.2326,-2.2378,-2.2428,-2.2509,-2.2509,-2.2547,-2.2569,-2.2606,-2.2656,-2.26,-2.2602,-2.2608,-2.2737,-2.2737,-2.2747,-2.2663,-2.2665,-2.2667,-2.2732,0,-2.198,-2.2083,-2.2115,-2.2202,-2.2256,-2.2276,-2.2327,-2.2375,-2.2407,-2.2457,-2.2492,-2.2548,-2.2544,-2.2567,-2.2604,-2.2642,-2.2683,-2.2638,-2.2709,-2.2711,-2.2693,-2.2759,-2.2759,-2.2818,-2.2741,-2.2743,-2.2744,0,-2.2064,-2.2117,-2.221,-2.2273,-2.2296,-2.2341,-2.2403,-2.245,-2.2506,-2.2526,-2.2569,-2.2588,-2.265,-2.2632,-2.2717,-2.2686,-2.2717,-2.2741,-2.2744,-2.2751,-2.2729,-2.2767,-2.2838,-2.2846,-2.2758,-2.2757,-2.2756,0,-2.2088,-2.2184,-2.2251,-2.228,-2.2355,-2.2386,-2.2419,-2.2473,-2.2509,-2.2563,-2.2588,-2.2648,-2.2681,-2.2728,-2.2762,-2.2746,-2.2845,-2.283,-2.2863,-2.2862,-2.2882,-2.288,-2.2958,-2.2903,-2.2903,-2.2903,-2.2903,0,-2.2152,-2.2208,-2.2264,-2.2305,-2.2368,-2.2404,-2.2465,-2.2499,-2.2547,-2.2596,-2.2618,-2.2663,-2.2707,-2.2758,-2.2785,-2.2852,-2.2867,-2.2885,-2.2891,-2.2882,-2.288,-2.2902,-2.2899,-2.2905,-2.2905,-2.2904,-2.2904,0,-2.219,-2.223,-2.2305,-2.237,-2.2388,-2.2431,-2.2487,-2.2528,-2.2561,-2.2622,-2.2638,-2.2689,-2.275,-2.279,-2.2868,-2.2887,-2.2959,-2.2965,-2.294,-2.2943,-2.2974,-2.297,-2.3068,-2.3083,-2.3019,-2.302,-2.302,0,-2.2227,-2.2271,-2.2341,-2.2374,-2.2407,-2.2462,-2.2499,-2.2537,-2.2575,-2.2642,-2.2675,-2.2738,-2.2789,-2.2886,-2.293,-2.299,-2.2997,-2.3028,-2.3006,-2.2996,-2.2997,-2.2994,-2.2998,-2.3031,-2.3031,-2.3032,-2.3032,0,-2.229,-2.2307,-2.236,-2.242,-2.2464,-2.2514,-2.2563,-2.259,-2.2636,-2.2678,-2.274,-2.2781,-2.286,-2.2922,-2.2986,-2.302,-2.3034,-2.3039,-2.3049,-2.304,-2.3024,-2.3032,-2.2949,-2.3036,-2.3035,-2.3035,-2.3035,-2.3035,-2.2328,-2.2367,-2.2423,-2.2481,-2.2522,-2.2568,-2.2609,-2.2647,-2.27,-2.2768,-2.2787,-2.2852,-2.2907,-2.2994,-2.303,-2.3082,-2.3078,-2.3094,-2.3097,-2.3101,-2.31,-2.3016,-2.3093,-2.3093,-2.3093,-2.3093,-2.3093,0,-2.2391,-2.2427,-2.2481,-2.2549,-2.2595,-2.2604,-2.2659,-2.2697,-2.2754,-2.2804,-2.2855,-2.2927,-2.2987,-2.3036,-2.3098,-2.313,-2.3138,-2.3145,-2.3143,-2.315,-2.31,-2.3085,-2.3138,-2.3138,-2.3138,-2.3138,-2.3138,-2.3138,-2.2429,-2.2495,-2.2519,-2.2607,-2.2643,-2.2707,-2.2738,-2.278,-2.282,-2.2899,-2.2949,-2.2981,-2.3031,-2.3097,-2.3153,-2.3165,-2.3187,-2.3193,-2.3207,-2.3159,-2.3154,-2.3149,-2.3134,-2.3197,-2.3197,-2.3253,-2.3253,-2.3253]}]]